This is the latest recevied weather packets stored in our database for station/object UR7D-12. If no packets are shown the sender has not sent any weather packets the latest 1 day(s).
| Time | Temp. | Humidity | Pressure | Rain* | Wind** | Luminosity | Snow |
|---|---|---|---|---|---|---|---|
| 1778021222 | 16.11° C | 55% | 986 hPa | 0 mm | 3.58 m/s, 101° | - | - |
| 1778020922 | 16.11° C | 55% | 986 hPa | 0 mm | 3.13 m/s, 112° | - | - |
| 1778020622 | 16.11° C | 55% | 986.1 hPa | 0 mm | 3.13 m/s, 110° | - | - |
| 1778020321 | 16.11° C | 55% | 986.1 hPa | 0 mm | 3.13 m/s, 101° | - | - |
| 1778020021 | 16.11° C | 55% | 986 hPa | 0 mm | 2.68 m/s, 120° | - | - |
| 1778019721 | 16.11° C | 56% | 986.1 hPa | 0 mm | 2.68 m/s, 125° | - | - |
| 1778019420 | 16.11° C | 56% | 986.1 hPa | 0 mm | 2.68 m/s, 98° | - | - |
| 1778019120 | 16.11° C | 56% | 986.2 hPa | 0 mm | 3.13 m/s, 105° | - | - |
| 1778018820 | 16.11° C | 55% | 986.1 hPa | 0 mm | 2.68 m/s, 110° | - | - |
| 1778018520 | 16.11° C | 55% | 986 hPa | 0 mm | 2.68 m/s, 93° | - | - |
| 1778018219 | 16.11° C | 55% | 986.1 hPa | 0 mm | 2.68 m/s, 114° | - | - |
| 1778017919 | 16.67° C | 55% | 986 hPa | 0 mm | 2.68 m/s, 112° | - | - |
| 1778017619 | 16.67° C | 55% | 986 hPa | 0 mm | 3.13 m/s, 113° | - | - |
| 1778017318 | 16.67° C | 54% | 985.9 hPa | 0 mm | 3.13 m/s, 106° | - | - |
| 1778017018 | 16.67° C | 54% | 986 hPa | 0 mm | 3.13 m/s, 88° | - | - |
| 1778016718 | 16.67° C | 54% | 986.1 hPa | 0 mm | 2.24 m/s, 106° | - | - |
| 1778016418 | 16.11° C | 55% | 986 hPa | 0 mm | 1.34 m/s, 99° | - | - |
| 1778016117 | 16.67° C | 54% | 986 hPa | 0 mm | 1.34 m/s, 103° | - | - |
| 1778015817 | 16.67° C | 54% | 985.9 hPa | 0 mm | 1.34 m/s, 98° | - | - |
| 1778015517 | 16.67° C | 53% | 986 hPa | 0 mm | 1.34 m/s, 108° | - | - |
| 1778015216 | 16.67° C | 53% | 986 hPa | 0 mm | 1.34 m/s, 122° | - | - |
| 1778014916 | 16.67° C | 53% | 985.9 hPa | 0 mm | 1.34 m/s, 121° | - | - |
| 1778014616 | 17.22° C | 53% | 986 hPa | 0 mm | 1.34 m/s, 113° | - | - |
| 1778014316 | 17.22° C | 53% | 985.9 hPa | 0 mm | 1.34 m/s, 110° | - | - |
| 1778014015 | 17.22° C | 52% | 985.9 hPa | 0 mm | 1.34 m/s, 108° | - | - |
* Rain latest hour (hover to see other rain measurements)
** Current wind speed in m/s (hover to see current wind gust speed)